Home > Weather > Winder > Past weeks

Flag for USA Weather for the Past 2 Weeks in Winder, Georgia, USA

Now
66 °F

Fog.


Feels Like: 66 °F
Forecast: 67 / 83 °F
Wind: No wind

Location: Winder-Barrow Airport

Current Time: May 1, 2016 at 7:02:20 AM

Latest Report: May 1, 2016 at 6:15 AM


Visibility: 1 mi

Pressure: 30.03 "Hg

Humidity: 94%

Dew Point: 64 °F

Location of WinderLocation

Historic Weather in Winder — Graph

°F

Winder Temperature Yesterday

Maximum temperature yesterday: 86 °F (at 1:15 PM)
Minimum temperature yesterday: 64 °F (at 3:15 AM)
Average temperature yesterday: 72 °F

High & Low Weather Summary for the Past Weeks

 TemperatureHumidityPressure
High90 °F (Apr 29, 4:55 PM)94% (Apr 23, 3:35 AM)30.45 "Hg (Apr 23, 3:35 AM)
Low41 °F (Apr 17, 6:55 AM)15% (Apr 18, 3:55 PM)29.85 "Hg (Apr 27, 4:55 PM)
Average70 °F56%30.10 "Hg
* Reported Apr 16 6:15 AM — May 1 6:15 AM, Winder, Weather by CustomWeather, © 2016

Note: Actual official high and low records may vary slightly from our data, if they occured in-between our weather recording intervals... More about our weather records

Advertising

Winder Weather History for the Previous 24 Hours

Scroll right to see more
 ConditionsComfort  
Time TempWeatherWind HumidityBarometerVisibility
6:15 AM
Sun, May 1
66 °FFog.No wind94%30.03 "Hg1 mi
5:35 AM68 °FPassing clouds.No wind88%30.03 "Hg7 mi
5:15 AM68 °FPartly cloudy.No wind88%30.03 "Hg7 mi
4:55 AM68 °FOvercast.No wind88%30.03 "Hg7 mi
4:35 AM68 °FPartly cloudy.No wind88%30.03 "Hg10 mi
4:15 AM68 °FThunderstorms. Partly cloudy.No wind88%30.03 "Hg10 mi
3:55 AM68 °FThunderstorms. Overcast.No wind88%30.02 "Hg4 mi
3:35 AM68 °FThunderstorms. Overcast.No wind88%30.01 "Hg7 mi
2:55 AM68 °FThunderstorms. Fog.No wind88%30.01 "Hg5 mi
2:35 AM68 °FFog.No wind88%30.02 "Hg5 mi
2:15 AM68 °FPassing clouds.No wind88%30.04 "Hg7 mi
1:55 AM68 °FPartly cloudy.No wind88%30.04 "Hg7 mi
1:15 AM68 °FMostly cloudy.No wind88%30.05 "Hg10 mi
12:15 AM68 °FPassing clouds.8 mph88%30.02 "Hg10 mi
11:55 PM
Sat, Apr 30
68 °FPartly cloudy.6 mph88%30.03 "Hg10 mi
11:35 PM68 °FPassing clouds.7 mph88%30.04 "Hg10 mi
10:15 PM66 °FThunderstorms. Mostly cloudy.No wind94%30.06 "Hg7 mi
9:55 PM66 °FThunderstorms. Overcast.3 mph88%30.05 "Hg7 mi
9:15 PM70 °FThundershowers. More clouds than sun.No wind94%30.02 "Hg7 mi
8:55 PM70 °FThundershowers. Cloudy.3 mph88%30.00 "Hg10 mi
8:35 PM70 °FLight rain. Cloudy.No wind88%30.00 "Hg4 mi
8:15 PM70 °FThundershowers. Cloudy.No wind83%29.99 "Hg7 mi
7:55 PM73 °FThunderstorms. Broken clouds.5 mph83%29.98 "Hg10 mi
7:15 PM73 °FBroken clouds.5 mph83%29.98 "Hg10 mi
6:55 PM73 °FPartly sunny.3 mph83%29.98 "Hg10 mi
6:35 PM77 °FBroken clouds.No wind65%29.98 "Hg10 mi
6:15 PM77 °FBroken clouds.6 mph79%29.98 "Hg10 mi
5:55 PM77 °FThundershowers. Scattered clouds.No wind79%29.96 "Hg10 mi
5:15 PM77 °FScattered clouds.No wind74%29.96 "Hg10 mi
4:55 PM73 °FLight rain. Broken clouds.No wind83%29.97 "Hg10 mi
4:35 PM73 °FLight rain. Cloudy.No wind83%29.97 "Hg7 mi
4:15 PM73 °FThundershowers. Cloudy.No wind89%29.99 "Hg4 mi
3:55 PM73 °FThunderstorms. Cloudy.No wind83%29.98 "Hg7 mi
3:35 PM81 °FThundershowers. Broken clouds.No wind58%29.98 "Hg10 mi
3:15 PM82 °FThunderstorms. Scattered clouds.5 mph51%29.99 "Hg10 mi
2:55 PM81 °FScattered clouds.No wind48%29.99 "Hg10 mi
2:35 PM81 °FScattered clouds.8 mph51%30.00 "Hg10 mi
2:10 PM81 °FThundershowers. Scattered clouds.6 mph54%30.00 "Hg10 mi
1:55 PM81 °FLight rain. Broken clouds.No wind66%30.00 "Hg7 mi
1:15 PM86 °FBroken clouds.6 mph46%30.02 "Hg10 mi
12:55 PM82 °FCloudy.5 mph51%30.02 "Hg10 mi
12:35 PM82 °FBroken clouds.No wind51%30.03 "Hg10 mi
12:15 PM84 °FSunny.3 mph48%30.03 "Hg10 mi
11:55 AM81 °FScattered clouds.No wind51%30.04 "Hg10 mi
11:35 AM81 °FPartly sunny.3 mph51%30.05 "Hg10 mi
11:15 AM77 °FScattered clouds.No wind57%30.05 "Hg10 mi
10:55 AM77 °FPartly sunny.No wind54%30.04 "Hg10 mi
10:35 AM73 °FScattered clouds.No wind61%30.04 "Hg10 mi
10:15 AM72 °FSunny.No wind65%30.04 "Hg10 mi
9:55 AM70 °FScattered clouds.No wind69%30.05 "Hg10 mi
9:35 AM70 °FScattered clouds.No wind64%30.04 "Hg10 mi
9:15 AM68 °FScattered clouds.5 mph69%30.03 "Hg10 mi
8:55 AM66 °FSunny.No wind73%30.03 "Hg10 mi
8:35 AM66 °FSunny.No wind68%30.03 "Hg10 mi
8:15 AM66 °FSunny.No wind68%30.02 "Hg10 mi
7:55 AM64 °FSunny.No wind73%30.01 "Hg10 mi
7:35 AM64 °FClear.No wind73%30.00 "Hg10 mi
7:15 AM64 °FClear.No wind73%30.01 "Hg10 mi
Weather by CustomWeather, © 2016

See weather overviewHow to use our weather pages